[[{"header":{"parameterUnit":"m.s-1","parameterCategory":1,"la1":30.2991,"la2":30.254,"lo1":-89.0895,"lo2":-89.0444,"dy":0.0017,"dx":0.0017,"nx":28,"ny":28,"refTime":"2024-09-28T09:00:00:Z","depth":0,"parameterNumber":2,"parameterNumberName":"U-component_of_WINDS"},"data":[0,0,0,0,0,0,0,0,0,0,0,0,0,0,0,0,0,0,0,0,0,0,0,0,0,0,0,0,0,0,0,0,0,0,0,0,0,0,0,0,0,0,0,0,0,0,0,0,0,0,0,0,0,0,0,0,0,0,3.5739,3.574,0,3.5876,3.5878,3.5879,3.5815,3.5811,3.5808,3.5804,3.5951,3.5958,3.5965,0,0,0,0,0,0,0,0,0,0,0,0,0,3.5426,3.5432,3.5739,3.5741,3.5742,3.5876,3.5878,3.588,3.5815,3.5811,3.5807,3.5803,3.5949,3.5957,3.5966,0,0,0,0,0,0,0,0,0,0,0,0,0,3.5562,3.5434,3.5738,3.5726,3.5726,3.5875,3.5878,3.588,3.5816,3.5811,3.5806,3.5801,3.5946,3.5957,3.5967,3.6139,0,0,3.6,3.6005,0,0,0,0,0,0,0,0,3.5555,3.5574,3.5726,3.5727,3.5728,3.5823,3.5821,3.5967,3.5817,3.5782,3.5804,3.5798,3.5913,3.5926,3.5964,3.6145,3.6152,3.6001,3.6008,3.6012,3.6015,0,0,0,0,0,0,0,3.5545,3.5568,3.5793,3.5728,3.5729,3.5715,3.5729,3.5848,3.5876,3.5785,3.578,3.5797,3.5913,3.5954,3.5967,3.6154,3.6001,3.601,3.6017,3.6021,3.6481,3.6487,0,0,0,0,0,0,3.5536,3.556,3.5789,3.5797,3.5626,3.5725,3.574,3.5798,3.5874,3.5881,3.5802,3.5794,3.5938,3.5954,3.5972,3.6176,3.6012,3.6022,3.6028,3.6476,3.6483,3.6489,0,0,0,0,0,0,3.5529,3.5557,3.5783,3.5678,3.5705,3.5736,3.5801,3.5803,3.5844,3.5887,3.5892,3.5838,3.5934,3.5957,3.6097,3.618,3.6027,3.6037,3.6469,3.6478,3.6486,3.6586,0,0,0,0,0,0,3.552,3.5555,3.5619,3.5679,3.5711,3.5905,3.5806,3.581,3.5862,3.5853,3.5922,3.5929,3.5932,3.6081,3.6107,3.6192,3.6045,3.6461,3.6473,3.6483,3.6576,3.6597,3.6616,0,0,0,0,0,3.5509,3.5644,3.5623,3.5651,3.5792,3.591,3.5928,3.5927,3.5869,3.5934,3.5961,3.5927,3.6167,3.6096,3.6125,3.6214,3.6456,3.647,3.6482,3.6567,3.6593,3.6615,0,0,0,0,0,0,3.5595,3.5652,3.5629,3.5786,3.5843,3.5899,3.5981,3.5955,3.6032,3.6021,3.6018,3.6034,3.6179,3.6211,3.6131,3.6383,3.6303,3.6322,3.6357,3.6382,3.6402,3.6391,3.6054,0,0,0,0,0,3.5632,3.5721,3.5766,3.5901,3.593,3.5951,3.6003,3.5996,3.6056,3.6081,3.6118,3.618,3.6268,3.6327,3.6412,3.658,3.6594,3.6656,3.6676,3.6692,3.6709,3.6799,3.6826,3.6531,3.6531,3.6531,0,0,3.571,3.5752,3.5809,3.5919,3.5963,3.6056,3.5972,3.6075,3.6144,3.6097,3.623,3.626,3.6329,3.6483,3.6553,3.6514,3.6793,3.6709,3.6721,3.6729,3.6815,3.6843,3.6868,3.654,3.6539,3.6537,0,0,3.5899,3.594,3.6055,3.61,3.6166,3.6178,3.6206,3.6265,3.6282,3.6415,3.6381,3.6465,3.6619,3.6668,3.6713,3.6919,3.6889,3.6947,3.7051,3.7139,3.7162,3.7183,3.7255,3.7281,3.6963,3.6963,3.6964,0,3.5988,3.6125,3.6119,3.6223,3.6273,3.6231,3.6349,3.6393,3.6485,3.6521,3.6475,3.6665,3.6709,3.6873,3.6922,3.6961,3.6993,3.6938,3.7159,3.718,3.7199,3.7268,3.7295,3.697,3.6969,3.6968,3.6968,0,3.623,3.6326,3.6412,3.6498,3.6557,3.6668,3.668,3.6741,3.6729,3.6747,3.6883,3.6933,3.7026,3.7065,3.7056,3.7228,3.7201,3.7158,3.7077,3.7233,3.7298,3.7324,3.6979,3.6977,3.6975,3.6973,0,0,3.6478,3.6557,3.6589,3.6626,3.6695,3.677,3.6879,3.6967,3.7019,3.7083,3.7175,3.7305,3.7264,3.7315,3.7312,3.7389,3.7547,3.7335,3.7337,3.7372,3.7738,3.7769,3.78,3.7527,3.7532,3.7536,3.7732,0,3.6671,3.6859,3.6856,3.7031,3.7119,3.708,3.7175,3.7228,3.7247,3.7326,3.7348,3.744,3.738,3.741,3.7484,3.7512,3.762,3.7498,3.7613,3.7617,3.7596,3.7834,3.7868,3.805,3.7757,3.7761,3.7765,0,3.6921,3.699,3.7173,3.7227,3.7264,3.7349,3.7428,3.7504,3.7564,3.7572,3.7628,3.7612,3.7724,3.7639,3.7793,3.771,3.7757,3.7777,3.7784,3.7795,3.77,3.785,3.8108,3.8135,3.7805,3.7801,3.7798,0,3.7082,3.7221,3.7347,3.7381,3.7448,3.7508,3.7539,3.7593,3.7646,3.7716,3.775,3.7834,3.788,3.7945,3.7952,3.7891,3.8107,3.8024,3.8118,3.8118,3.8165,3.8162,3.8433,3.8197,3.8197,3.8196,3.8195,0,3.7297,3.741,3.742,3.7498,3.7624,3.7619,3.7744,3.777,3.7818,3.7901,3.7875,3.7953,3.7958,3.804,3.8046,3.8172,3.8194,3.8204,3.8204,3.8206,3.8204,3.8236,3.8223,3.8203,3.8202,3.82,3.8199,0,3.7497,3.7508,3.7644,3.7695,3.771,3.78,3.7844,3.7919,3.7935,3.804,3.8065,3.8091,3.8185,3.8198,3.831,3.8314,3.8465,3.8452,3.8444,3.8441,3.8534,3.8525,3.8835,3.8875,3.8614,3.8616,3.8618,0,3.7633,3.7719,3.7778,3.783,3.7863,3.7949,3.8001,3.8,3.8057,3.813,3.8196,3.8287,3.8359,3.8512,3.8541,3.8626,3.8615,3.8718,3.8628,3.8626,3.8615,3.8609,3.8618,3.8735,3.8738,3.874,3.8742,0,3.7873,3.7873,3.7949,3.8027,3.809,3.8151,3.821,3.8255,3.8261,3.8326,3.842,3.8476,3.8588,3.8679,3.8762,3.8795,3.8771,3.877,3.8796,3.8799,3.8789,3.8794,3.849,3.8763,3.8761,3.876,3.8759,3.8758,3.8045,3.8118,3.817,3.8255,3.8298,3.8352,3.8424,3.8448,3.8526,3.8615,3.861,3.8714,3.8771,3.8879,3.8918,3.9,3.8967,3.9005,3.9015,3.9024,3.9032,3.8777,3.9016,3.9015,3.9015,3.9014,3.9014,0,3.8282,3.8312,3.839,3.8471,3.8538,3.8506,3.8568,3.8627,3.8717,3.8771,3.8842,3.895,3.9037,3.9073,3.9159,3.9217,3.9208,3.924,3.9235,3.9243,3.9058,3.9026,3.9246,3.9246,3.9246,3.9246,3.9246,3.9246,3.8413,3.8534,3.8541,3.8684,3.8715,3.8814,3.8852,3.8903,3.8945,3.9066,3.9137,3.9159,3.9206,3.9294,3.9373,3.9381,3.9414,3.945,3.9454,3.928,3.9256,3.9234,3.9204,3.9458,3.9458,3.9632,3.9634,3.9635]},{"header":{"parameterUnit":"m.s-1","parameterCategory":1,"la1":30.2991,"la2":30.254,"lo1":-89.0895,"lo2":-89.0444,"dy":0.0017,"dx":0.0017,"nx":28,"ny":28,"refTime":"2024-09-28T09:00:00:Z","depth":0,"parameterNumber":3,"parameterNumberName":"V-component_of_WINDS"},"data":[0,0,0,0,0,0,0,0,0,0,0,0,0,0,0,0,0,0,0,0,0,0,0,0,0,0,0,0,0,0,0,0,0,0,0,0,0,0,0,0,0,0,0,0,0,0,0,0,0,0,0,0,0,0,0,0,0,0,1.7915,1.7914,0,1.7838,1.7837,1.7836,1.777,1.7769,1.7768,1.7767,1.7686,1.7685,1.7683,0,0,0,0,0,0,0,0,0,0,0,0,0,1.8002,1.8,1.7915,1.7914,1.7913,1.7838,1.7837,1.7836,1.777,1.7769,1.7768,1.7767,1.7686,1.7685,1.7683,0,0,0,0,0,0,0,0,0,0,0,0,0,1.7948,1.8,1.7915,1.7871,1.7866,1.7838,1.7837,1.7835,1.777,1.7769,1.7768,1.7767,1.7687,1.7685,1.7683,1.7691,0,0,1.7676,1.7675,0,0,0,0,0,0,0,0,1.7951,1.7945,1.7878,1.7874,1.7869,1.7812,1.7837,1.7787,1.777,1.7806,1.7767,1.7766,1.7729,1.7723,1.7711,1.7687,1.7684,1.7676,1.7674,1.7673,1.7673,0,0,0,0,0,0,0,1.7955,1.7948,1.7884,1.7878,1.7872,1.7854,1.7845,1.7828,1.7775,1.7803,1.7798,1.779,1.7726,1.7713,1.7708,1.7683,1.7676,1.7674,1.7672,1.7672,1.7659,1.766,0,0,0,0,0,0,1.7966,1.7952,1.7887,1.7882,1.7908,1.7853,1.7843,1.7831,1.7775,1.7765,1.7791,1.7787,1.7717,1.7711,1.7705,1.771,1.7673,1.7671,1.767,1.7658,1.766,1.7661,0,0,0,0,0,0,1.7968,1.7961,1.789,1.7915,1.7905,1.7853,1.784,1.783,1.7818,1.7766,1.7755,1.7788,1.7716,1.7708,1.7695,1.7706,1.767,1.7668,1.7657,1.7659,1.766,1.772,0,0,0,0,0,0,1.7971,1.7962,1.7966,1.7916,1.7904,1.7882,1.7841,1.783,1.7814,1.7809,1.776,1.7751,1.7715,1.7698,1.7693,1.7703,1.7667,1.7656,1.7658,1.766,1.7717,1.7724,1.773,0,0,0,0,0,1.7974,1.7986,1.7966,1.7959,1.7908,1.7883,1.7876,1.7835,1.7816,1.7818,1.7784,1.7753,1.7706,1.7698,1.769,1.77,1.7655,1.7657,1.766,1.7714,1.7723,1.7729,0,0,0,0,0,0,1.8038,1.7978,1.7956,1.7952,1.7923,1.7872,1.7874,1.7845,1.782,1.7816,1.7765,1.7754,1.7746,1.7721,1.7713,1.7704,1.7676,1.7677,1.772,1.7728,1.7734,1.7739,1.7665,0,0,0,0,0,1.8051,1.8037,1.7986,1.7987,1.7974,1.7926,1.7914,1.7885,1.7852,1.7839,1.7805,1.7773,1.7751,1.7738,1.7715,1.7713,1.7701,1.7716,1.7722,1.7728,1.7729,1.7724,1.773,1.7668,1.7668,1.7668,0,0,1.8079,1.8045,1.8039,1.7999,1.7973,1.7958,1.7916,1.7903,1.7891,1.7837,1.7822,1.7795,1.7757,1.7749,1.7743,1.7728,1.7743,1.773,1.7735,1.7733,1.7727,1.7733,1.7738,1.767,1.767,1.7669,0,0,1.8122,1.8096,1.8093,1.8068,1.8029,1.7997,1.7997,1.7949,1.7929,1.7913,1.7872,1.7856,1.782,1.7794,1.7776,1.7808,1.7777,1.7801,1.7833,1.7829,1.7834,1.7838,1.7848,1.7852,1.7803,1.7803,1.7803,0,1.8162,1.8139,1.8095,1.8084,1.8066,1.8017,1.8013,1.799,1.7946,1.7934,1.7918,1.7871,1.7841,1.7825,1.7833,1.7821,1.7817,1.7807,1.7837,1.7841,1.7844,1.7852,1.7856,1.7806,1.7806,1.7806,1.7805,0,1.8188,1.8173,1.8175,1.8133,1.8116,1.8109,1.8063,1.805,1.8022,1.7992,1.7975,1.7938,1.7906,1.79,1.7873,1.788,1.7871,1.7847,1.7818,1.7854,1.7861,1.7864,1.7811,1.781,1.7809,1.7808,0,0,1.827,1.8203,1.8205,1.8185,1.8137,1.8124,1.8113,1.8082,1.8072,1.8043,1.8031,1.8001,1.7978,1.7957,1.7926,1.7923,1.7948,1.7898,1.7896,1.7907,1.7951,1.7969,1.7974,1.7927,1.7928,1.7928,1.7954,0,1.8304,1.8283,1.8243,1.8234,1.8218,1.817,1.8161,1.813,1.8101,1.8082,1.8049,1.8028,1.8,1.7987,1.7981,1.7946,1.7956,1.7944,1.7914,1.7914,1.7925,1.7978,1.7998,1.8024,1.7957,1.7957,1.7957,0,1.8342,1.8315,1.8305,1.8257,1.8249,1.8242,1.8209,1.8192,1.8155,1.8134,1.8111,1.8077,1.8061,1.8035,1.8012,1.8004,1.799,1.797,1.797,1.7966,1.7938,1.7974,1.8032,1.8035,1.7962,1.7961,1.7961,0,1.8401,1.8362,1.8351,1.8335,1.828,1.8275,1.8252,1.8214,1.8197,1.8168,1.8157,1.8127,1.811,1.8086,1.8044,1.8029,1.8024,1.7995,1.8005,1.8006,1.8006,1.8007,1.8062,1.7998,1.7998,1.7998,1.7998,0,1.8443,1.8438,1.8376,1.8369,1.8362,1.8315,1.8309,1.828,1.8247,1.8232,1.8189,1.8176,1.8121,1.8101,1.8068,1.8053,1.8046,1.8027,1.8018,1.803,1.8033,1.802,1.8016,1.7999,1.7999,1.7999,1.7999,0,1.8508,1.8466,1.845,1.8399,1.8386,1.8382,1.8338,1.8328,1.8296,1.8278,1.8271,1.822,1.8194,1.8149,1.8111,1.8088,1.8079,1.8064,1.8092,1.8086,1.8098,1.8097,1.8146,1.8149,1.8085,1.8086,1.8087,0,1.8537,1.8532,1.848,1.8468,1.8446,1.8426,1.8409,1.8362,1.8345,1.8302,1.8298,1.8268,1.8242,1.8203,1.8162,1.8131,1.8115,1.8134,1.811,1.8122,1.8113,1.8114,1.8112,1.8139,1.814,1.8141,1.8142,0,1.8593,1.8573,1.855,1.852,1.85,1.8474,1.8445,1.8437,1.8383,1.8367,1.834,1.832,1.828,1.8251,1.8214,1.8188,1.8155,1.815,1.815,1.8162,1.8178,1.8168,1.8106,1.8149,1.8148,1.8147,1.8147,1.8147,1.864,1.8633,1.8595,1.857,1.8544,1.8518,1.8506,1.8472,1.8449,1.8414,1.8387,1.8362,1.8323,1.827,1.8246,1.8225,1.821,1.8211,1.8211,1.8212,1.8216,1.8182,1.8218,1.8218,1.8217,1.8217,1.8217,0,1.8693,1.8666,1.8644,1.8605,1.8586,1.8557,1.8524,1.8509,1.8487,1.8454,1.843,1.8398,1.8369,1.8325,1.8292,1.8283,1.8267,1.8276,1.8276,1.827,1.8232,1.8234,1.829,1.829,1.829,1.829,1.829,1.829,1.8718,1.8704,1.8679,1.865,1.8623,1.8598,1.8581,1.8556,1.853,1.8496,1.8473,1.8444,1.8406,1.837,1.8342,1.8329,1.8319,1.8332,1.8315,1.828,1.8273,1.8267,1.8269,1.8331,1.8331,1.8355,1.8356,1.8356]}]]